Home   Weather   Summit Camp   Past weeks
Flag for Greenland

Past Weather in Summit Camp, Greenland — Yesterday and Last 2 Weeks

Now
34 °F

Chilly.


Feels Like: 28 °F
Forecast: -15 / -26 °F
Wind: 7 mph from North

Location: Aputiteeq

Current Time: Oct 16, 2019 at 5:37:53 pm

Latest Report: Oct 16, 2019 at 4:00 pm


Visibility: N/A

Pressure: 30.01 "Hg (20.13 "Hg at 3207m altitude)

Humidity: 50%

Dew Point: 17 °F

Location of Summit CampLocation

Past Weather in Summit Camp — Graph

°F

Summit Camp Temperature Yesterday

Maximum temperature yesterday: 40 °F (at 8:00 pm)
Minimum temperature yesterday: 28 °F (at 1:00 am)
Average temperature yesterday: 35 °F

High & Low Weather Summary for the Past Weeks

 TemperatureHumidityPressure
High45 °F (Oct 8, 12:00 pm)100% (Oct 7, 12:00 am)30.29 "Hg (Oct 7, 12:00 am)
Low27 °F (Oct 12, 7:00 am)49% (Oct 12, 3:00 pm)29.35 "Hg (Oct 7, 6:00 pm)
Average34 °F80%29.82 "Hg
* Reported Oct 1 3:00 pm — Oct 16 3:00 pm, Summit Camp. Weather by CustomWeather, © 2019

Note: Actual official high and low records may vary slightly from our data, if they occured in-between our weather recording intervals... More about our weather records

Advertising

Summit Camp Weather History for the Previous 24 Hours

Scroll right to see more
 ConditionsComfort  
Time TempWeatherWind HumidityBarometerVisibility
3:00 pm
Wed, Oct 16
34 °FChilly.8 mph64%30.01 "HgN/A
2:00 pm34 °FChilly.8 mph56%30.02 "HgN/A
1:00 pm34 °FChilly.7 mph58%30.03 "HgN/A
12:00 pm35 °FChilly.7 mph54%30.04 "HgN/A
11:00 am34 °FChilly.7 mph65%30.05 "HgN/A
10:00 am36 °FChilly.1 mph64%30.05 "HgN/A
9:00 am33 °FChilly.10 mph65%30.04 "HgN/A
8:00 am33 °FChilly.10 mph62%30.02 "HgN/A
7:00 am34 °FChilly.8 mph77%30.02 "HgN/A
6:00 am35 °FChilly.2 mph67%30.01 "HgN/A
5:00 am33 °FChilly.17 mph58%29.98 "HgN/A
4:00 am34 °FChilly.9 mph76%29.98 "HgN/A
3:00 am34 °FChilly.3 mph69%29.97 "HgN/A
2:00 am35 °FChilly.5 mph70%29.97 "HgN/A
1:00 am34 °FChilly.9 mph76%29.97 "HgN/A
12:00 am36 °FChilly.3 mph62%29.97 "HgN/A
11:00 pm
Tue, Oct 15
35 °FChilly.9 mph67%29.97 "HgN/A
10:00 pm40 °FQuite cool.10 mph53%29.96 "HgN/A
9:00 pm40 °FChilly.15 mph50%29.95 "HgN/A
8:00 pm40 °FQuite cool.13 mph49%29.95 "HgN/A
7:00 pm39 °FChilly.15 mph57%29.95 "HgN/A
6:00 pm38 °FChilly.17 mph59%29.93 "HgN/A
5:00 pm37 °FChilly.14 mph70%29.92 "HgN/A
Weather by CustomWeather, © 2019

See weather overview